Regional Weather Roundup
Issued by NWS

Home | Current Version | Previous Version | Graphics & Text | Print | Product List | Glossary Off
Versions: 1 2 3 4 5 6 7 8 9 10 11 12 13 14 15 16 17 18 19 20 21 22 23 24 25 26 27 28 29 30 31 32 33 34 35 36 37 38 39 40 41 42 43 44 45 46 47 48 49 50

468
ASUS43 KLSX 261507
RWRMO

WEATHER SUMMARY FOR MISSOURI
NATIONAL WEATHER SERVICE SPRINGFIELD MO
1000 AM CDT SUN MAR 26 2017

NOTE: "FAIR" INDICATES FEW OR NO CLOUDS BELOW 12,000 FEET WITH NO
       SIGNIFICANT WEATHER AND/OR OBSTRUCTIONS TO VISIBILITY.
       CURRENT SKY AND/OR WEATHER CONDITIONS ARE NOT AVAILABLE FOR
       CHILLICOTHE AND FARMINGTON.

MOZ001>031-035>038-043-044-053-054-261600-
...NORTHERN AND WESTERN MISSOURI...

CITY           SKY/WX    TMP DP  RH WIND       PRES   REMARKS
KANSAS CTY INT CLOUDY    45  42  89 W9        29.93R
KANSAS C DTWN  CLOUDY    47  41  80 W7        29.93R
LEE`S SUMMIT   CLOUDY    46  41  82 W8        29.93R
ST JOSEPH      CLOUDY    45  42  89 NW3       29.92R
CHILLICOTHE      N/A     45  42  89 NW6       29.91S
KIRKSVILLE     CLOUDY    45  44  97 W10       29.88R

$$
MOZ066>068-077>081-088>096-101>105-261600-
...SOUTHWEST MISSOURI...

CITY           SKY/WX    TMP DP  RH WIND       PRES   REMARKS
SPRINGFIELD    SUNNY     51  46  83 S5        29.93R
JOPLIN         MOSUNNY   51  46  83 CALM      29.95R
BRANSON        PTSUNNY   50  45  81 W3        29.96S

$$
MOZ032>034-039>042-045>050-055>058-069>072-261600-
...CENTRAL MISSOURI...

CITY           SKY/WX    TMP DP  RH WIND       PRES   REMARKS
COLUMBIA       CLOUDY    49  49 100 W13       29.90S FOG
JEFFERSON CITY CLOUDY    53  48  83 W7        29.91S
ROLLA          CLOUDY    49  48  97 SW12      29.91R
SEDALIA        CLOUDY    49  49 100 W6        29.91F
WHITEMAN AFB   CLOUDY    48  48 100 W10       29.91R
WARRENSBURG    CLOUDY    46  43  87 SW6       29.91R
OSAGE BEACH    CLOUDY   N/A N/A N/A W7        29.92F

$$
MOZ051-052-059>065-261600-
...EAST CENTRAL MISSOURI...

CITY           SKY/WX    TMP DP  RH WIND       PRES   REMARKS
ST LOUIS INTL  CLOUDY    54  47  77 SW9       29.91R
SPIRIT OF STL  CLOUDY    53  49  86 SW7       29.90S
ST CHARLES     CLOUDY    52  49  89 SW9       29.90R

$$
MOZ072>076-082>087-097>100-106>115-261600-
...SOUTH CENTRAL AND SOUTHEAST MISSOURI...

CITY           SKY/WX    TMP DP  RH WIND       PRES   REMARKS
CAPE GIRARDEAU MOSUNNY   56  48  74 SW13      29.96R
POPLAR BLUFF   CLOUDY    55  46  71 W8        29.97S
WEST PLAINS    CLOUDY    50  46  86 VRB3      29.95S

$$




USA.gov is the U.S. government's official web portal to all federal, state and local government web resources and services.